Flag for Germany Weather past 2 weeks in Ostfildern, Baden-Württemberg, Germany

Now
39 °F

Broken clouds.


Feels Like: 31 °F
Forecast: 32 / 39 °F
Wind: 14 mph from Southwest

Location: Stuttgart-Echterdingen

Current Time: Jan 28, 2015 at 3:23:36 PM

Latest Report: Jan 28, 2015 at 2:50 PM


Visibility: N/A

Pressure: 29.86 "Hg

Humidity: 75%

Dew point: 32 °F

Location of OstfildernLocation

Historic Weather in Ostfildern — Graph

°F

Ostfildern temperature yesterday

Maximum temperature yesterday: 37 °F (at 11:50 AM)
Minimum temperature yesterday: 34 °F (at 12:20 AM)
Average temperature yesterday: 35 °F

Past Weeks' High & Low Weather Summary

 TemperatureHumidityPressure
High57 °F (Jan 13, 2:20 PM)100% (Jan 15, 2:20 AM)30.39 "Hg (Jan 15, 2:20 AM)
Low27 °F (Jan 18, 6:20 AM)29% (Jan 13, 2:20 PM)29.68 "Hg (Jan 16, 2:20 PM)
Average36 °F86%29.99 "Hg
* Reported Jan 13 2:20 PM — Jan 28 2:20 PM, Ostfildern, Weather by CustomWeather, © 2014

Note: Actual official high and low records may vary slightly from our data, if they occured in-between our weather recording intervals... More about our weather records

Advertising

Ostfildern weather history for previous 24 hours

 ConditionsComfort  
Time TempWeatherWind HumidityBarometerVisibility
2:20 PM
Jan 28
39 °FBroken clouds.14 mph70%29.89 "HgN/A
1:50 PM37 °FBroken clouds.13 mph75%29.92 "HgN/A
1:20 PM37 °FPartly sunny.10 mph75%29.95 "HgN/A
12:50 PM37 °FPartly sunny.10 mph75%29.98 "HgN/A
12:20 PM37 °FPartly sunny.13 mph75%30.01 "HgN/A
11:50 AM36 °FPartly sunny.10 mph81%30.04 "HgN/A
11:20 AM36 °FPartly sunny.8 mph81%30.04 "HgN/A
10:50 AM36 °FPartly sunny.9 mph81%30.04 "HgN/A
10:20 AM36 °FPartly sunny.8 mph81%30.07 "HgN/A
9:50 AM36 °FPartly sunny.7 mph81%30.07 "HgN/A
9:20 AM36 °FPartly sunny.6 mph81%30.07 "HgN/A
8:50 AM34 °FPartly sunny.8 mph87%30.09 "HgN/A
8:20 AM34 °FPartly sunny.8 mph87%30.09 "HgN/A
7:50 AM34 °FPassing clouds.7 mph87%30.09 "HgN/A
7:20 AM34 °FPassing clouds.7 mph87%30.09 "HgN/A
6:50 AM34 °FPartly cloudy.5 mph93%30.12 "HgN/A
6:20 AM34 °FPartly cloudy.3 mph93%30.12 "HgN/A
5:50 AM34 °FPassing clouds.6 mph93%30.12 "HgN/A
5:20 AM34 °FLight snow. Passing clouds.8 mph93%30.12 "HgN/A
4:50 AM34 °FLight snow. Passing clouds.5 mph93%30.12 "HgN/A
4:20 AM34 °FPassing clouds.6 mph93%30.12 "HgN/A
3:50 AM34 °FPassing clouds.7 mph93%30.15 "HgN/A
3:20 AM34 °FPassing clouds.3 mph93%30.15 "HgN/A
2:50 AM34 °FPassing clouds.3 mph93%30.15 "HgN/A
2:20 AM34 °FPassing clouds.2 mph93%30.15 "HgN/A
1:50 AM34 °FPassing clouds.3 mph93%30.18 "HgN/A
1:20 AM34 °FPassing clouds.5 mph93%30.18 "HgN/A
12:50 AM34 °FPassing clouds.6 mph93%30.18 "HgN/A
12:20 AM34 °FPassing clouds.6 mph93%30.18 "HgN/A
11:50 PM
Jan 27
34 °FPartly cloudy.6 mph93%30.18 "HgN/A
11:20 PM34 °FLight snow. Partly cloudy.6 mph93%30.18 "HgN/A
10:50 PM34 °FLight snow. Partly cloudy.6 mph93%30.18 "HgN/A
10:20 PM34 °FPassing clouds.6 mph93%30.18 "HgN/A
9:50 PM34 °FLight snow. Passing clouds.8 mph93%30.18 "HgN/A
9:20 PM36 °FLight rain. Passing clouds.8 mph87%30.18 "HgN/A
8:50 PM36 °FPassing clouds.8 mph87%30.18 "HgN/A
8:20 PM36 °FSnow flurries. Partly cloudy.8 mph87%30.18 "HgN/A
7:50 PM36 °FSnow flurries. Passing clouds.10 mph87%30.18 "HgN/A
7:20 PM36 °FSnow flurries. Partly cloudy.13 mph87%30.18 "HgN/A
6:50 PM36 °FSnow flurries. Partly cloudy.12 mph87%30.18 "HgN/A
6:20 PM36 °FSnow flurries. Passing clouds.12 mph87%30.15 "HgN/A
5:50 PM36 °FSnow flurries. Passing clouds.13 mph87%30.18 "HgN/A
5:20 PM36 °FSnow flurries. Passing clouds.13 mph87%30.15 "HgN/A
4:50 PM36 °FPartly sunny.15 mph81%30.15 "HgN/A
4:20 PM36 °FPartly sunny.15 mph87%30.15 "HgN/A
3:50 PM36 °FSnow showers. Broken clouds.15 mph87%30.15 "Hg3 mi
3:20 PM37 °FSnow flurries. Broken clouds.14 mph75%30.15 "Hg6 mi
Weather by CustomWeather, © 2014

See weather overviewHow to use our weather pages